STARLINK-5216 (54057 NORAD) Tracking and Keplerian Element Data

This shows tracking and keplerian element data for the satellite.

Feedback or suggestion? Click here.




ElementValue
Catalog54057
NameSTARLINK-5216
Epoch Orbit549
Epoch Day325.33334491
Epoch Year2022
RAAN351.7753
Inclination53.2154
Eccentricity0.0003495
Argument of Perigee64.7059
Mean Anonmoly206.1917
Mean Motion15.64757595
Decay Rate0.00011255
L11 54057U 22136G 22325.33334491 .00011255 00000+0 11898-3 0 9992
L22 54057 53.2154 351.7753 0003495 64.7059 206.1917 15.64757595 5494



Live tracking and technical data element details for STARLINK-5216 (NORAD 54057). STARLINK-5216 can be tracked NOW for your location showing map with azimuth and elevation plus other details from your city location.







IsCatalogInMostPopularTable: catalog: 54057, numindb: 1
Update: records affected: 1



GetName: 54057 STARLINK-5216

Hit Count: updated at: Mon, 28 Nov 2022 21:44:34 GMT